QPF
0.00 0.00 0.00 0.00 0.00 0.00 0.00 0.00 0.00 0.00 0.00 0.00 0.00 0.00 0.00 0.00 0.00 0.00 0.00 0.00 0.00 0.00 0.00 0.00 0.00 0.00 0.00 0.00 0.00 0.00 0.00 0.00 0.00 0.00 0.00 0.00 0.00 0.00 0.00 0.00 0.00 0.00 0.00 0.00 0.00
0.00 0.00 0.00 0.00 0.00 0.00 0.00 0.00 0.00 0.00 0.00 0.00 0.00 0.00 0.00 0.00 0.00 0.00 0.00 0.00 0.00 0.00 0.00 0.00 0.00 0.00 0.00 0.00 0.00 0.00 0.00 0.00 0.00 0.00 0.00 0.00 0.00 0.00 0.00 0.00 0.00 0.00 0.00 0.00 0.00
0.00 0.00 0.00 0.00 0.00 0.00 0.00 0.00 0.00 0.00 0.00 0.00 0.00 0.00 0.00 0.00 0.00 0.00 0.00 0.00 0.00 0.00 0.00 0.00 0.00 0.00 0.00 0.00 0.00 0.00 0.00 0.00 0.00 0.00 0.00 0.00 0.00 0.00 0.00 0.00 0.00 0.00 0.00 0.00 0.00
0.00 0.00 0.00 0.00 0.00 0.00 0.00 0.00 0.00 0.00 0.00 0.00 0.00 0.00 0.00 0.00 0.00 0.00 0.00 0.00 0.00 0.00 0.00 0.00 0.00 0.00 0.00 0.00 0.00 0.00 0.00 0.00 0.00 0.00 0.00 0.00 0.00 0.00 0.00 0.00 0.00 0.00 0.00 0.00 0.00
0.00 0.00 0.00 0.00 0.00 0.00 0.00 0.00 0.00 0.00 0.00 0.00 0.00 0.00 0.00 0.00 0.00 0.00 0.00 0.00 0.00 0.00 0.00 0.00 0.00 0.00 0.00 0.00 0.00 0.00 0.00 0.00 0.00 0.00 0.00 0.00 0.00 0.00 0.00 0.00 0.00 0.00 0.00 0.00 0.00
0.00 0.00 0.00 0.00 0.00 0.00 0.00 0.00 0.00 0.00 0.00 0.00 0.00 0.00 0.00 0.00 0.00 0.00 0.00 0.00 0.00 0.00 0.00 0.00 0.00 0.00 0.00 0.00 0.00 0.00 0.00 0.00 0.00 0.00 0.00 0.00 0.00 0.00 0.00 0.00 0.00 0.00 0.00 0.00 0.01
0.00 0.00 0.00 0.00 0.00 0.00 0.00 0.00 0.00 0.00 0.00 0.00 0.00 0.00 0.00 0.00 0.00 0.00 0.00 0.00 0.00 0.00 0.00 0.00 0.00 0.00 0.00 0.00 0.00 0.00 0.00 0.00 0.00 0.00 0.00 0.00 0.00 0.00 0.00 0.00 0.00 0.00 0.00 0.02 0.02
0.00 0.00 0.00 0.00 0.00 0.00 0.00 0.00 0.00 0.00 0.00 0.00 0.00 0.00 0.00 0.00 0.00 0.00 0.00 0.00 0.00 0.00 0.00 0.00 0.00 0.00 0.00 0.00 0.00 0.00 0.00 0.00 0.00 0.00 0.00 0.00 0.00 0.00 0.00 0.00 0.00 0.00 0.00 0.01 0.03
0.00 0.00 0.00 0.00 0.00 0.00 0.00 0.00 0.00 0.00 0.00 0.00 0.00 0.00 0.00 0.00 0.00 0.00 0.00 0.00 0.00 0.00 0.00 0.00 0.00 0.00 0.00 0.00 0.00 0.00 0.00 0.00 0.00 0.00 0.00 0.00 0.00 0.00 0.00 0.00 0.00 0.00 0.00 0.00 0.03
0.00 0.00 0.00 0.00 0.00 0.00 0.00 0.00 0.00 0.00 0.00 0.00 0.00 0.00 0.00 0.00 0.00 0.00 0.00 0.00 0.00 0.00 0.00 0.00 0.00 0.00 0.00 0.00 0.00 0.00 0.00 0.00 0.00 0.00 0.00 0.00 0.00 0.00 0.00 0.00 0.00 0.00 0.00 0.00 0.00
0.00 0.00 0.00 0.00 0.00 0.00 0.00 0.00 0.00 0.00 0.00 0.00 0.00 0.00 0.00 0.00 0.00 0.00 0.00 0.00 0.00 0.00 0.00 0.00 0.00 0.00 0.00 0.00 0.00 0.00 0.00 0.00 0.00 0.00 0.00 0.00 0.00 0.00 0.00 0.00 0.00 0.00 0.00 0.00 0.00
0.00 0.00 0.00 0.00 0.00 0.00 0.00 0.00 0.00 0.00 0.00 0.00 0.00 0.00 0.00 0.00 0.00 0.00 0.00 0.00 0.00 0.00 0.00 0.00 0.00 0.00 0.00 0.00 0.00 0.00 0.00 0.00 0.00 0.00 0.00 0.00 0.00 0.00 0.00 0.00 0.00 0.00 0.00 0.00 0.00
0.00 0.00 0.00 0.00 0.00 0.00 0.00 0.00 0.00 0.00 0.00 0.00 0.00 0.00 0.00 0.00 0.00 0.00 0.00 0.00 0.00 0.00 0.00 0.00 0.00 0.00 0.00 0.00 0.00 0.00 0.00 0.00 0.00 0.00 0.00 0.00 0.00 0.00 0.00 0.00 0.00 0.00 0.00 0.00 0.00
0.00 0.00 0.00 0.00 0.00 0.00 0.00 0.00 0.00 0.00 0.00 0.00 0.00 0.00 0.00 0.00 0.00 0.00 0.00 0.00 0.00 0.00 0.00 0.00 0.00 0.00 0.00 0.00 0.00 0.00 0.00 0.00 0.00 0.00 0.00 0.00 0.00 0.00 0.00 0.00 0.00 0.00 0.00 0.00 0.00
0.00 0.00 0.00 0.00 0.00 0.00 0.00 0.00 0.00 0.00 0.00 0.00 0.00 0.00 0.00 0.00 0.00 0.00 0.00 0.00 0.00 0.00 0.00 0.00 0.00 0.00 0.00 0.00 0.00 0.00 0.00 0.00 0.00 0.00 0.00 0.00 0.00 0.00 0.00 0.00 0.00 0.00 0.00 0.00 0.00
0.00 0.00 0.00 0.00 0.00 0.00 0.00 0.00 0.00 0.00 0.00 0.00 0.00 0.00 0.00 0.00 0.00 0.00 0.00 0.00 0.00 0.00 0.00 0.00 0.00 0.00 0.00 0.00 0.00 0.00 0.00 0.00 0.00 0.00 0.00 0.00 0.00 0.00 0.00 0.00 0.00 0.00 0.00 0.00 0.00
0.00 0.00 0.00 0.00 0.00 0.00 0.00 0.00 0.00 0.00 0.00 0.00 0.00 0.00 0.00 0.00 0.00 0.00 0.00 0.00 0.00 0.00 0.00 0.00 0.00 0.00 0.00 0.00 0.00 0.00 0.00 0.00 0.00 0.00 0.00 0.00 0.00 0.00 0.00 0.00 0.00 0.00 0.00 0.00 0.00
0.00 0.00 0.00 0.00 0.00 0.00 0.00 0.00 0.00 0.00 0.00 0.00 0.00 0.00 0.00 0.00 0.00 0.00 0.00 0.00 0.00 0.00 0.00 0.00 0.00 0.00 0.00 0.00 0.00 0.00 0.00 0.00 0.00 0.00 0.00 0.00 0.00 0.00 0.00 0.00 0.00 0.00 0.00 0.00 0.00
0.00 0.00 0.00 0.00 0.00 0.00 0.00 0.00 0.00 0.00 0.00 0.00 0.00 0.00 0.00 0.00 0.00 0.00 0.00 0.00 0.00 0.00 0.00 0.00 0.00 0.00 0.00 0.00 0.00 0.00 0.00 0.00 0.00 0.00 0.00 0.00 0.00 0.00 0.00 0.00 0.00 0.00 0.00 0.00 0.00
0.00 0.00 0.00 0.00 0.00 0.00 0.00 0.00 0.00 0.00 0.00 0.00 0.00 0.00 0.00 0.00 0.00 0.00 0.00 0.00 0.00 0.00 0.00 0.00 0.00 0.00 0.00 0.00 0.00 0.00 0.00 0.00 0.00 0.00 0.00 0.00 0.00 0.00 0.00 0.00 0.00 0.00 0.00 0.00 0.00
0.00 0.00 0.00 0.00 0.00 0.00 0.00 0.00 0.00 0.00 0.00 0.00 0.00 0.00 0.00 0.00 0.00 0.00 0.00 0.00 0.00 0.00 0.00 0.00 0.00 0.00 0.00 0.00 0.00 0.00 0.00 0.00 0.00 0.00 0.00 0.00 0.00 0.00 0.00 0.00 0.00 0.00 0.00 0.00 0.00
0.00 0.00 0.00 0.00 0.00 0.00 0.00 0.00 0.00 0.00 0.00 0.00 0.00 0.00 0.00 0.00 0.00 0.00 0.00 0.00 0.00 0.00 0.00 0.00 0.00 0.00 0.00 0.00 0.00 0.00 0.00 0.00 0.00 0.00 0.00 0.00 0.00 0.00 0.00 0.00 0.00 0.00 0.00 0.00 0.00
0.00 0.00 0.00 0.00 0.00 0.00 0.00 0.00 0.00 0.00 0.00 0.00 0.00 0.00 0.00 0.00 0.00 0.00 0.00 0.00 0.00 0.00 0.00 0.00 0.00 0.00 0.00 0.00 0.00 0.00 0.00 0.00 0.00 0.00 0.00 0.00 0.00 0.00 0.00 0.00 0.00 0.00 0.00 0.00 0.00
0.00 0.00 0.00 0.00 0.00 0.00 0.00 0.00 0.00 0.00 0.00 0.00 0.00 0.00 0.00 0.00 0.00 0.00 0.00 0.00 0.00 0.00 0.00 0.00 0.00 0.00 0.00 0.00 0.00 0.00 0.00 0.00 0.00 0.00 0.00 0.00 0.00 0.00 0.00 0.00 0.00 0.00 0.00 0.00 0.00
0.00 0.00 0.00 0.00 0.00 0.00 0.00 0.00 0.00 0.00 0.00 0.00 0.00 0.00 0.00 0.00 0.00 0.00 0.00 0.00 0.00 0.00 0.00 0.00 0.00 0.00 0.00 0.00 0.00 0.00 0.00 0.00 0.00 0.00 0.00 0.00 0.00 0.00 0.00 0.00 0.00 0.00 0.00 0.00 0.00
0.00 0.00 0.00 0.00 0.00 0.00 0.00 0.00 0.00 0.00 0.00 0.00 0.00 0.00 0.00 0.00 0.00 0.00 0.00 0.00 0.00 0.00 0.00 0.00 0.00 0.00 0.00 0.00 0.00 0.00 0.00 0.00 0.00 0.00 0.00 0.00 0.00 0.00 0.00 0.00 0.00 0.00 0.00 0.00 0.00
0.00 0.00 0.00 0.00 0.00 0.00 0.00 0.00 0.00 0.00 0.00 0.00 0.00 0.00 0.00 0.00 0.00 0.00 0.00 0.00 0.00 0.00 0.00 0.00 0.00 0.00 0.00 0.00 0.00 0.00 0.00 0.00 0.00 0.00 0.00 0.00 0.00 0.00 0.00 0.00 0.00 0.00 0.00 0.00 0.00
MSLP
1016.06 1015.61 1015.10 1014.56 1014.02 1013.54 1013.02 1012.53 1012.16 1011.83 1011.59 1011.50 1011.50 1011.46 1011.36 1011.23 1010.79 1010.69 1009.44 1007.03 1006.75 1006.82 1007.08 1006.98 1007.36 1007.12 1007.67 1007.76 1007.44 1007.65 1008.60 1007.87 1006.65 1005.62 1004.66 1002.93 1002.90 1004.38 1004.77 1005.35 1006.07 1006.03 1006.82 1007.87 1009.46
1016.02 1015.54 1015.00 1014.40 1013.79 1013.32 1012.83 1012.32 1011.91 1011.61 1011.37 1011.23 1011.26 1011.27 1011.22 1011.12 1010.69 1009.45 1006.35 1006.21 1006.35 1006.61 1006.93 1006.73 1006.91 1007.11 1007.46 1007.00 1006.80 1007.16 1007.25 1006.15 1004.76 1003.65 1003.03 1002.57 1002.93 1003.89 1005.14 1005.91 1006.38 1006.53 1007.80 1008.91 1009.86
1016.01 1015.47 1014.96 1014.34 1013.68 1013.09 1012.61 1012.06 1011.59 1011.26 1011.08 1011.00 1010.99 1011.03 1011.01 1011.00 1010.16 1006.90 1005.37 1005.80 1006.25 1006.42 1006.41 1006.32 1006.58 1006.85 1006.71 1006.24 1006.05 1005.91 1005.67 1004.53 1003.50 1002.69 1002.41 1002.65 1003.07 1003.60 1004.77 1006.03 1005.80 1006.56 1007.78 1008.96 1010.08
1016.07 1015.41 1014.88 1014.24 1013.60 1013.03 1012.50 1011.88 1011.44 1011.04 1010.77 1010.71 1010.71 1010.74 1010.79 1010.71 1008.61 1005.73 1005.09 1005.79 1006.18 1006.40 1006.50 1006.21 1006.36 1006.50 1006.32 1006.08 1005.38 1005.33 1003.93 1003.28 1002.95 1002.39 1002.35 1002.75 1002.93 1003.72 1004.09 1004.74 1005.27 1005.84 1006.72 1008.08 1009.66
1016.06 1015.34 1014.70 1014.11 1013.42 1012.78 1012.33 1011.75 1011.21 1010.87 1010.48 1010.42 1010.52 1010.62 1010.69 1009.53 1006.80 1005.46 1005.57 1006.00 1006.30 1006.48 1006.36 1006.35 1006.44 1006.42 1006.32 1005.63 1005.23 1004.53 1003.59 1003.04 1002.72 1002.29 1002.45 1002.49 1002.87 1003.17 1003.84 1004.57 1005.63 1006.49 1007.29 1008.09 1009.28
1015.91 1015.27 1014.57 1013.94 1013.29 1012.56 1012.01 1011.57 1011.02 1010.59 1010.31 1010.32 1010.44 1010.62 1010.13 1007.82 1004.95 1005.13 1005.56 1006.11 1006.11 1006.26 1006.07 1006.08 1005.86 1005.68 1005.80 1005.49 1005.24 1004.41 1003.87 1003.02 1002.61 1002.46 1002.42 1002.98 1003.13 1003.16 1004.72 1005.20 1006.08 1006.76 1007.66 1008.57 1009.13
1015.72 1015.06 1014.40 1013.73 1013.09 1012.33 1011.72 1011.30 1010.92 1010.46 1010.25 1010.36 1010.48 1010.40 1009.22 1005.87 1004.46 1004.86 1005.28 1005.60 1005.47 1005.66 1005.80 1005.59 1005.49 1005.99 1005.45 1005.35 1004.78 1004.53 1004.21 1003.43 1002.77 1002.68 1002.84 1003.01 1003.85 1004.45 1004.86 1005.42 1006.12 1006.96 1007.84 1008.63 1009.23
1015.54 1014.78 1014.08 1013.44 1012.84 1012.14 1011.39 1010.91 1010.65 1010.37 1010.24 1010.39 1010.56 1010.14 1007.55 1004.37 1004.43 1004.96 1005.17 1005.22 1005.20 1005.24 1005.18 1004.65 1004.93 1005.17 1005.32 1005.32 1005.14 1005.10 1004.76 1004.35 1002.84 1002.76 1003.14 1003.14 1004.76 1005.08 1004.98 1005.52 1006.40 1007.17 1008.12 1008.84 1009.21
1015.42 1014.55 1013.75 1013.02 1012.48 1011.91 1011.09 1010.45 1010.17 1010.20 1010.29 1010.45 1010.46 1009.60 1006.39 1004.42 1004.67 1004.06 1004.25 1004.71 1004.87 1005.04 1005.02 1004.50 1004.58 1005.08 1005.45 1006.04 1006.15 1005.71 1004.99 1004.27 1003.32 1002.69 1003.23 1003.62 1005.27 1005.43 1005.21 1005.53 1006.67 1007.34 1008.49 1009.04 1009.29
1015.36 1014.43 1013.51 1012.63 1012.01 1011.54 1010.77 1009.99 1010.03 1010.21 1010.40 1010.26 1009.53 1008.91 1005.81 1003.97 1003.60 1003.69 1003.87 1004.21 1004.68 1004.88 1005.29 1004.90 1005.22 1005.79 1006.22 1006.66 1006.64 1005.77 1004.79 1003.80 1003.16 1002.90 1003.08 1004.05 1005.15 1005.79 1005.76 1005.95 1006.94 1007.55 1008.37 1009.03 1009.20
1015.27 1014.34 1013.29 1012.25 1011.61 1011.23 1010.71 1010.40 1010.26 1009.78 1009.22 1007.88 1007.13 1006.14 1004.24 1003.27 1002.98 1003.42 1003.28 1003.70 1003.96 1004.49 1005.16 1005.26 1006.07 1006.07 1005.60 1005.63 1005.23 1005.11 1004.36 1004.11 1003.34 1002.83 1003.61 1004.22 1005.10 1005.80 1006.31 1006.71 1007.48 1008.02 1008.66 1009.26 1009.56
1015.22 1014.25 1013.09 1011.84 1010.99 1010.72 1010.51 1009.50 1007.47 1006.84 1007.04 1005.91 1005.27 1004.96 1003.84 1003.41 1003.14 1003.19 1003.13 1003.90 1004.05 1004.63 1005.11 1005.72 1005.60 1004.64 1004.56 1004.39 1004.44 1004.29 1004.23 1004.15 1003.60 1003.62 1003.94 1004.86 1005.42 1006.22 1006.50 1007.00 1007.28 1007.79 1008.53 1009.12 1009.65
1015.15 1014.21 1013.04 1011.52 1010.33 1010.08 1009.54 1007.81 1006.21 1006.06 1006.69 1004.66 1003.71 1003.30 1002.93 1002.84 1002.68 1002.78 1003.23 1003.48 1004.16 1004.66 1004.95 1005.37 1004.10 1003.75 1003.99 1003.50 1003.89 1004.36 1004.57 1004.78 1004.80 1004.51 1004.42 1004.79 1006.18 1006.99 1007.36 1007.55 1007.91 1008.08 1008.45 1009.12 1009.46
1014.99 1014.19 1013.25 1011.59 1010.13 1010.27 1008.49 1006.86 1006.44 1005.99 1006.40 1004.15 1002.77 1001.71 1001.99 1002.12 1002.29 1002.01 1002.48 1003.13 1003.89 1004.09 1004.27 1004.48 1003.22 1003.07 1003.03 1003.28 1003.65 1004.28 1004.38 1004.51 1004.99 1005.92 1006.05 1006.01 1007.45 1007.33 1007.49 1008.38 1008.52 1008.64 1008.88 1009.35 1009.67
1014.75 1014.04 1013.36 1013.27 1012.26 1010.56 1007.43 1006.65 1006.22 1006.31 1005.84 1002.68 1001.72 1000.51 1001.14 1002.06 1001.90 1001.86 1001.82 1002.77 1003.32 1003.75 1004.32 1003.96 1003.08 1002.76 1002.87 1003.14 1003.36 1004.28 1004.28 1005.00 1005.61 1006.46 1007.06 1007.10 1007.73 1007.34 1008.10 1008.84 1008.76 1008.84 1009.07 1009.48 1009.55
1014.15 1013.60 1013.28 1012.59 1012.19 1008.65 1007.52 1007.04 1006.70 1007.12 1004.41 1002.25 1001.10 1001.11 1001.89 1002.09 1001.95 1001.88 1002.21 1002.52 1002.82 1003.57 1003.72 1003.68 1002.69 1002.54 1002.58 1002.85 1003.28 1003.92 1005.02 1005.98 1007.04 1008.09 1008.97 1007.62 1008.21 1008.45 1007.75 1007.45 1008.49 1008.90 1009.09 1009.37 1009.66
1013.38 1012.40 1012.92 1011.96 1009.54 1007.74 1007.79 1007.75 1007.92 1006.50 1003.22 1002.17 1001.51 1001.47 1002.01 1002.34 1002.44 1002.65 1002.73 1003.08 1003.70 1004.20 1004.59 1003.78 1003.09 1002.59 1002.36 1003.08 1003.69 1004.91 1006.90 1008.29 1009.58 1010.26 1009.88 1008.18 1008.43 1007.02 1006.62 1006.47 1006.71 1008.04 1008.94 1009.39 1009.63
1012.41 1011.06 1010.25 1009.59 1008.17 1008.32 1008.38 1008.55 1007.74 1005.04 1003.20 1001.70 1001.60 1001.96 1002.33 1002.24 1002.44 1002.64 1003.00 1003.53 1003.65 1004.21 1005.02 1004.76 1003.75 1002.82 1002.40 1003.17 1004.47 1005.58 1007.31 1009.18 1010.56 1011.51 1010.46 1008.74 1008.33 1006.80 1006.16 1007.02 1007.46 1008.05 1008.72 1009.45 1009.91
1011.67 1010.35 1009.65 1006.83 1007.58 1008.45 1009.01 1008.87 1006.65 1004.73 1003.11 1002.21 1001.59 1002.38 1002.47 1002.19 1002.17 1002.74 1003.05 1003.23 1003.02 1003.43 1004.69 1004.80 1004.24 1003.00 1002.70 1003.21 1004.21 1005.83 1007.27 1008.51 1010.21 1011.40 1011.30 1010.21 1009.04 1007.79 1007.16 1007.87 1008.11 1008.60 1009.10 1009.80 1010.33
1012.70 1011.19 1008.45 1005.56 1006.61 1007.91 1008.79 1008.23 1006.15 1004.08 1002.90 1002.12 1002.13 1002.21 1002.59 1002.57 1002.67 1003.01 1002.69 1002.28 1002.39 1002.38 1002.92 1004.30 1004.82 1004.10 1003.85 1003.74 1004.43 1005.42 1006.70 1008.72 1010.65 1011.87 1012.17 1011.12 1009.97 1009.33 1008.75 1008.56 1008.71 1009.24 1009.76 1010.41 1010.88
1012.82 1011.15 1005.91 1005.41 1006.22 1008.28 1008.91 1007.77 1005.67 1003.71 1003.02 1002.12 1001.95 1002.18 1002.50 1002.78 1002.83 1002.47 1002.11 1001.85 1001.73 1002.25 1002.65 1004.01 1004.90 1005.31 1004.59 1004.79 1005.21 1006.13 1007.14 1008.87 1010.63 1011.72 1012.31 1012.04 1010.49 1008.87 1008.72 1008.62 1009.24 1009.76 1010.18 1010.54 1011.09
1014.35 1011.37 1005.90 1006.09 1007.22 1008.24 1008.39 1006.84 1005.30 1003.84 1003.01 1002.39 1001.77 1001.97 1002.27 1002.48 1002.68 1002.57 1002.26 1001.83 1001.43 1001.63 1003.18 1004.20 1005.63 1006.35 1005.86 1005.28 1005.32 1005.97 1006.87 1008.44 1010.63 1011.94 1011.98 1011.58 1010.29 1008.70 1008.58 1008.74 1009.10 1010.09 1010.77 1011.13 1011.34
1016.13 1012.81 1006.72 1006.27 1007.71 1008.47 1007.74 1006.71 1005.62 1004.25 1003.14 1002.42 1002.15 1002.43 1002.39 1002.74 1003.09 1002.81 1002.44 1002.25 1001.81 1002.65 1003.51 1004.23 1006.18 1007.19 1006.97 1006.69 1006.06 1006.66 1007.23 1008.14 1009.56 1010.44 1011.34 1011.63 1010.36 1009.00 1009.25 1009.55 1010.06 1010.32 1010.84 1011.15 1011.67
1016.83 1014.07 1009.87 1008.08 1008.38 1008.47 1008.25 1006.90 1005.60 1003.91 1002.66 1002.09 1002.24 1002.52 1003.09 1003.50 1003.52 1003.42 1003.05 1002.83 1002.85 1003.28 1003.80 1004.48 1006.89 1007.69 1007.74 1007.57 1007.32 1007.28 1007.44 1008.02 1009.36 1010.35 1010.85 1010.88 1010.25 1009.92 1010.14 1010.07 1010.41 1010.75 1010.98 1011.43 1012.09
1016.60 1014.93 1013.16 1011.71 1010.20 1009.84 1008.75 1007.35 1005.96 1004.47 1003.20 1002.38 1002.71 1002.91 1003.50 1004.22 1004.40 1004.52 1004.12 1003.85 1003.76 1004.01 1004.48 1005.45 1007.33 1007.77 1008.04 1007.77 1007.48 1007.40 1007.36 1007.88 1008.73 1009.30 1010.16 1009.99 1010.31 1010.12 1010.21 1010.29 1010.54 1010.69 1011.02 1011.71 1012.29
1016.55 1015.69 1014.33 1013.11 1011.62 1010.39 1008.97 1007.85 1006.64 1005.29 1004.46 1003.86 1003.72 1003.45 1003.93 1004.90 1005.31 1005.53 1005.43 1005.04 1004.78 1004.99 1005.53 1006.33 1007.82 1008.17 1008.58 1008.20 1007.96 1007.61 1007.31 1007.45 1007.93 1008.45 1009.02 1009.29 1009.54 1009.51 1010.04 1010.42 1010.84 1011.08 1011.22 1011.92 1012.52
1017.09 1016.02 1015.57 1013.98 1012.80 1011.49 1010.59 1009.38 1007.63 1006.22 1005.24 1004.81 1004.43 1004.84 1005.14 1005.37 1005.26 1005.32 1005.54 1005.45 1005.46 1005.67 1006.66 1007.43 1008.41 1009.72 1009.86 1009.23 1008.66 1008.21 1007.38 1007.30 1007.55 1007.78 1008.31 1008.70 1008.87 1009.50 1010.24 1010.45 1010.65 1010.96 1011.34 1011.94 1012.39
Thickness
5782 5788 5794 5799 5804 5808 5813 5817 5820 5824 5826 5827 5827 5828 5829 5830 5834 5834 5835 5859 5863 5866 5864 5860 5852 5852 5847 5836 5845 5841 5790 5785 5805 5816 5826 5862 5860 5852 5857 5844 5844 5848 5838 5837 5829
5782 5788 5794 5800 5806 5810 5815 5819 5823 5827 5830 5831 5831 5831 5832 5833 5835 5837 5871 5872 5871 5869 5861 5853 5845 5848 5830 5836 5839 5819 5791 5808 5837 5850 5851 5862 5857 5848 5837 5833 5833 5835 5836 5833 5825
5780 5787 5793 5800 5806 5812 5816 5822 5827 5830 5833 5834 5835 5835 5834 5835 5837 5855 5880 5877 5873 5872 5870 5865 5857 5848 5835 5845 5841 5832 5811 5836 5854 5865 5870 5859 5854 5856 5837 5820 5837 5829 5829 5828 5819
5778 5786 5792 5799 5806 5811 5817 5823 5828 5833 5836 5837 5838 5838 5837 5837 5826 5873 5884 5878 5875 5873 5867 5862 5853 5841 5834 5830 5849 5824 5847 5859 5861 5867 5864 5854 5863 5846 5845 5844 5856 5851 5846 5836 5822
5776 5784 5792 5799 5806 5813 5818 5824 5830 5834 5838 5840 5840 5839 5839 5840 5850 5881 5880 5876 5874 5869 5861 5853 5845 5843 5831 5841 5844 5838 5853 5863 5864 5868 5864 5865 5854 5852 5851 5857 5852 5848 5841 5833 5826
5775 5783 5791 5798 5805 5813 5819 5824 5831 5836 5839 5840 5840 5839 5841 5835 5886 5885 5881 5875 5872 5867 5862 5859 5852 5857 5844 5842 5837 5849 5850 5858 5865 5863 5866 5850 5851 5853 5846 5852 5843 5838 5832 5829 5825
5774 5782 5790 5798 5805 5814 5820 5826 5830 5836 5838 5839 5839 5840 5841 5852 5889 5887 5883 5876 5878 5872 5860 5867 5867 5852 5853 5837 5856 5850 5837 5846 5854 5857 5852 5857 5837 5830 5848 5849 5837 5832 5827 5825 5823
5773 5782 5790 5798 5805 5813 5821 5827 5831 5835 5837 5837 5837 5839 5839 5888 5888 5882 5880 5875 5880 5878 5873 5878 5875 5860 5852 5855 5843 5832 5829 5810 5847 5852 5855 5848 5807 5834 5850 5844 5830 5828 5823 5820 5821
5771 5781 5790 5799 5806 5812 5822 5829 5833 5834 5835 5835 5835 5837 5840 5886 5870 5885 5885 5870 5873 5873 5873 5880 5871 5850 5845 5819 5802 5813 5796 5807 5828 5855 5848 5842 5809 5835 5849 5847 5836 5831 5818 5816 5818
5769 5779 5789 5799 5807 5813 5822 5830 5831 5831 5831 5834 5838 5829 5856 5860 5877 5882 5886 5878 5863 5862 5854 5854 5836 5820 5812 5799 5773 5796 5805 5820 5821 5847 5845 5829 5815 5826 5840 5841 5834 5834 5826 5816 5815
5766 5777 5788 5799 5807 5813 5820 5824 5823 5824 5830 5834 5842 5844 5864 5879 5887 5874 5884 5873 5868 5853 5821 5837 5807 5793 5813 5818 5825 5819 5825 5819 5835 5855 5837 5822 5819 5822 5827 5830 5825 5825 5821 5815 5813
5763 5774 5786 5800 5809 5814 5817 5824 5837 5842 5820 5850 5854 5853 5868 5874 5853 5863 5880 5848 5844 5820 5829 5811 5795 5828 5835 5836 5832 5830 5818 5811 5833 5845 5839 5817 5817 5817 5822 5821 5828 5826 5822 5818 5812
5759 5770 5783 5798 5811 5816 5822 5832 5854 5854 5814 5840 5858 5856 5860 5868 5852 5851 5862 5850 5833 5820 5818 5797 5822 5842 5833 5838 5823 5815 5809 5810 5814 5828 5838 5832 5804 5801 5814 5816 5822 5826 5826 5823 5818
5756 5766 5776 5794 5809 5808 5819 5842 5849 5852 5782 5817 5841 5859 5866 5866 5845 5872 5871 5852 5833 5816 5821 5812 5840 5838 5835 5826 5818 5801 5831 5829 5821 5799 5781 5819 5758 5794 5798 5796 5807 5811 5815 5813 5815
5753 5762 5771 5775 5783 5798 5828 5839 5845 5833 5758 5840 5842 5886 5867 5846 5854 5852 5876 5852 5823 5821 5824 5808 5829 5829 5818 5825 5834 5815 5837 5827 5821 5803 5790 5794 5768 5777 5791 5777 5794 5803 5808 5810 5814
5753 5760 5766 5775 5779 5809 5824 5830 5827 5772 5761 5824 5849 5841 5834 5841 5845 5852 5849 5858 5850 5828 5828 5820 5850 5839 5831 5839 5837 5840 5817 5803 5790 5774 5749 5788 5774 5768 5779 5794 5792 5798 5804 5806 5807
5753 5765 5764 5773 5790 5813 5817 5808 5762 5748 5825 5817 5823 5833 5824 5821 5826 5831 5823 5817 5800 5791 5786 5809 5819 5838 5843 5820 5824 5808 5774 5735 5740 5729 5739 5782 5763 5776 5803 5812 5814 5802 5800 5802 5805
5754 5770 5779 5787 5802 5804 5801 5775 5752 5790 5804 5834 5827 5821 5807 5819 5818 5821 5811 5798 5815 5806 5780 5774 5771 5817 5838 5818 5801 5803 5775 5731 5731 5719 5738 5775 5751 5780 5811 5809 5810 5806 5801 5798 5794
5754 5768 5777 5802 5800 5795 5775 5744 5762 5786 5812 5810 5815 5798 5800 5816 5819 5812 5803 5801 5817 5815 5783 5769 5785 5830 5833 5833 5818 5796 5771 5781 5745 5743 5734 5746 5771 5793 5803 5794 5796 5790 5792 5785 5785
5736 5750 5772 5806 5800 5784 5755 5745 5776 5807 5813 5814 5790 5802 5789 5803 5802 5797 5793 5820 5820 5828 5827 5800 5772 5810 5817 5824 5822 5799 5800 5754 5731 5725 5721 5729 5749 5741 5770 5781 5786 5782 5780 5775 5776
5730 5740 5787 5798 5793 5759 5735 5747 5782 5807 5807 5806 5797 5794 5794 5792 5796 5795 5799 5822 5832 5823 5827 5804 5784 5786 5804 5791 5781 5778 5769 5759 5743 5727 5708 5701 5727 5772 5773 5779 5775 5772 5772 5770 5769
5702 5723 5783 5785 5747 5739 5739 5766 5786 5789 5799 5801 5810 5804 5796 5798 5794 5798 5800 5811 5834 5831 5805 5807 5771 5759 5781 5803 5807 5789 5774 5756 5722 5731 5722 5717 5724 5788 5780 5778 5776 5766 5762 5761 5762
5674 5700 5767 5771 5726 5728 5744 5759 5772 5776 5783 5791 5796 5799 5806 5793 5782 5796 5803 5817 5824 5811 5800 5804 5760 5736 5751 5770 5783 5773 5778 5766 5741 5729 5725 5709 5720 5779 5772 5766 5766 5760 5759 5758 5755
5665 5685 5723 5738 5732 5734 5733 5742 5753 5783 5787 5795 5792 5796 5783 5779 5786 5784 5793 5806 5811 5806 5803 5795 5753 5742 5725 5745 5761 5761 5762 5766 5739 5714 5720 5718 5739 5756 5750 5751 5752 5752 5754 5752 5745
5658 5677 5690 5688 5711 5715 5729 5741 5746 5755 5775 5787 5778 5781 5775 5762 5761 5761 5772 5785 5795 5796 5796 5779 5750 5756 5753 5759 5763 5761 5761 5755 5744 5740 5722 5734 5731 5740 5742 5744 5746 5749 5748 5741 5735
5651 5658 5666 5674 5693 5708 5718 5728 5736 5745 5754 5754 5761 5769 5755 5742 5749 5747 5755 5763 5768 5781 5777 5766 5736 5753 5744 5753 5748 5745 5754 5753 5749 5746 5734 5729 5730 5742 5743 5741 5738 5739 5737 5728 5721
5632 5644 5648 5661 5672 5685 5688 5699 5718 5733 5744 5749 5753 5740 5738 5749 5762 5766 5764 5761 5768 5763 5749 5746 5731 5715 5716 5733 5732 5716 5741 5745 5739 5740 5735 5720 5734 5736 5731 5733 5732 5731 5727 5720 5714